This demonstration page uses our WeatherBlox Daily Observations layout. Learn more.

Left ArrowRight Arrow

38.20091, -84.87328

Hourly Observations for February 19, 2020

Temp ( °F °C ) Dew Point ( °F °C ) Humidity (%) Winds ( mph kmh ) Pressure ( in mb ) Visibility ( mi km ) Precip ( " mm )
12:31 am 00:31 Partly Cloudy 36 2.2 31 -0.6 82 82 NNW 7 11 30.35 1028 7 11 0.00 0.00
12:53 am 00:53 Clear with Mist and Fog 35 1.7 31 -0.6 85 85 NNW 7 11 30.33 1027 6 10 0.00 0.00
1:53 am 01:53 Clear with Mist and Fog 34 1.1 30 -1.1 85 85 NNW 8 13 30.35 1028 6 10 0.00 0.00
2:53 am 02:53 Clear with Mist and Fog 33 0.6 29 -1.7 85 85 N 7 11 30.37 1028 6 10 0.00 0.00
3:53 am 03:53 Clear 32 0 28 -2.2 85 85 N 6 9 30.38 1029 7 11 0.00 0.00
4:53 am 04:53 Clear 31 -0.6 28 -2.2 89 89 N 5 7 30.40 1029 7 11 0.00 0.00
5:53 am 05:53 Clear with Mist and Fog 30 -1.1 27 -2.8 88 88 N 3 6 30.43 1031 6 10 0.00 0.00
6:53 am 06:53 Clear with Mist and Fog 30 -1.1 27 -2.8 88 88 N 6 9 30.45 1031 6 10 0.00 0.00
7:53 am 07:53 Sunny with Mist and Fog 29 -1.7 26 -3.3 89 89 Calm 30.47 1032 4 6 0.00 0.00
8:53 am 08:53 Sunny with Mist and Fog 32 0 28 -2.2 85 85 NE 3 6 30.50 1033 5 8 0.00 0.00
9:53 am 09:53 Mostly Cloudy 35 1.7 29 -1.7 78 78 NE 7 11 30.52 1033 7 11 0.00 0.00
10:08 am 10:08 Partly Cloudy 35 1.7 28 -2.2 76 76 ENE 8 13 30.54 1034 9 14 0.00 0.00
10:53 am 10:53 Sunny 37 2.8 28 -2.2 70 70 ENE 6 9 30.52 1034 10 16 0.00 0.00
11:53 am 11:53 Sunny 40 4.4 27 -2.8 60 60 Calm 30.53 1034 10 16 0.00 0.00
12:53 pm 12:53 Sunny 43 6.1 27 -2.8 53 53 ENE 5 7 30.51 1033 10 16 0.00 0.00
1:53 pm 13:53 Sunny 45 7.2 26 -3.3 48 48 VRB 3 6 30.49 1033 10 16 0.00 0.00
2:53 pm 14:53 Sunny 47 8.3 25 -3.9 42 42 VRB 3 6 30.47 1032 10 16 0.00 0.00
3:53 pm 15:53 Sunny 48 8.9 22 -5.6 36 36 NE 5 7 30.45 1031 10 16 0.00 0.00
4:53 pm 16:53 Sunny 48 8.9 20 -6.7 33 33 VRB 3 6 30.46 1031 10 16 0.00 0.00
5:53 pm 17:53 Sunny 46 7.8 20 -6.7 35 35 NNE 6 9 30.45 1031 10 16 0.00 0.00
6:53 pm 18:53 Clear 42 5.6 18 -7.8 38 38 NNE 5 7 30.46 1031 10 16 0.00 0.00
7:53 pm 19:53 Clear 36 2.2 21 -6.1 55 55 NNE 3 6 30.47 1032 10 16 0.00 0.00
8:53 pm 20:53 Clear 36 2.2 20 -6.7 52 52 N 3 6 30.48 1032 10 16 0.00 0.00
9:53 pm 21:53 Clear 35 1.7 22 -5.6 59 59 N 3 6 30.48 1032 10 16 0.00 0.00
10:53 pm 22:53 Clear 37 2.8 20 -6.7 50 50 NNE 5 7 30.48 1032 10 16 0.00 0.00
11:53 pm 23:53 Clear 37 2.8 20 -6.7 50 50 NNE 7 11 30.46 1031 10 16 0.00 0.00

Powered by AerisWeather